Total_Precipitation_Accumulation
0.02 0.06 0.15 0.13 0.13 0.12 0.13 0.15 0.15 0.16 0.17 0.18 0.17 0.17 0.21 0.20 0.16 0.12 0.13 0.16 0.20 0.26 0.31 0.32 0.36 0.39 0.37 0.35 0.30 0.15 0.06 0.05 0.04 0.04 0.04 0.06 0.08 0.09 0.08 0.08 0.09 0.10 0.14
0.02 0.05 0.13 0.13 0.14 0.14 0.15 0.16 0.14 0.13 0.16 0.18 0.19 0.21 0.24 0.21 0.16 0.14 0.16 0.18 0.22 0.29 0.31 0.30 0.25 0.21 0.21 0.20 0.14 0.07 0.03 0.02 0.01 0.01 0.01 0.02 0.04 0.07 0.07 0.08 0.09 0.11 0.13
0.03 0.06 0.14 0.15 0.16 0.17 0.16 0.15 0.12 0.12 0.14 0.17 0.20 0.24 0.25 0.21 0.19 0.19 0.21 0.20 0.25 0.28 0.27 0.20 0.16 0.09 0.07 0.05 0.04 0.03 0.01 0.01 0.00 0.00 0.01 0.02 0.03 0.06 0.07 0.07 0.09 0.10 0.11
0.03 0.07 0.13 0.16 0.18 0.18 0.15 0.13 0.13 0.14 0.17 0.19 0.22 0.26 0.24 0.22 0.22 0.20 0.19 0.20 0.21 0.19 0.16 0.11 0.07 0.04 0.03 0.02 0.02 0.01 0.01 0.00 0.00 0.00 0.01 0.02 0.03 0.06 0.09 0.09 0.09 0.09 0.09
0.05 0.09 0.16 0.21 0.23 0.22 0.19 0.17 0.17 0.17 0.20 0.21 0.23 0.25 0.24 0.23 0.22 0.19 0.17 0.16 0.15 0.10 0.07 0.07 0.03 0.03 0.02 0.01 0.01 0.01 0.00 0.00 0.00 0.01 0.02 0.03 0.04 0.09 0.10 0.09 0.11 0.11 0.12
0.10 0.13 0.19 0.21 0.26 0.27 0.26 0.25 0.24 0.23 0.24 0.26 0.27 0.27 0.28 0.26 0.24 0.24 0.20 0.12 0.09 0.06 0.04 0.04 0.03 0.02 0.01 0.01 0.01 0.00 0.00 0.00 0.00 0.00 0.02 0.04 0.07 0.14 0.13 0.12 0.14 0.16 0.18
0.17 0.22 0.25 0.25 0.29 0.29 0.29 0.29 0.29 0.29 0.31 0.33 0.32 0.32 0.33 0.31 0.26 0.24 0.20 0.10 0.06 0.06 0.05 0.04 0.03 0.01 0.01 0.01 0.01 0.00 0.00 0.00 0.00 0.00 0.02 0.04 0.07 0.14 0.14 0.13 0.14 0.16 0.17
0.29 0.35 0.36 0.35 0.37 0.34 0.32 0.32 0.32 0.35 0.37 0.40 0.40 0.40 0.41 0.39 0.33 0.24 0.19 0.11 0.07 0.06 0.05 0.05 0.03 0.02 0.01 0.01 0.01 0.00 0.00 0.00 0.00 0.01 0.02 0.02 0.05 0.10 0.11 0.09 0.09 0.10 0.10
0.52 0.55 0.56 0.50 0.45 0.40 0.37 0.35 0.35 0.38 0.41 0.43 0.43 0.42 0.43 0.42 0.36 0.27 0.18 0.12 0.09 0.08 0.05 0.05 0.04 0.02 0.01 0.01 0.01 0.01 0.00 0.00 0.00 0.01 0.01 0.02 0.05 0.09 0.09 0.08 0.08 0.07 0.07
0.82 0.78 0.74 0.70 0.64 0.57 0.48 0.40 0.39 0.40 0.43 0.44 0.39 0.33 0.30 0.33 0.33 0.28 0.17 0.14 0.10 0.09 0.08 0.05 0.04 0.03 0.02 0.01 0.01 0.00 0.00 0.00 0.00 0.00 0.01 0.02 0.05 0.08 0.08 0.08 0.07 0.07 0.07
1.12 1.00 0.89 0.80 0.77 0.69 0.61 0.49 0.43 0.44 0.46 0.43 0.36 0.28 0.25 0.30 0.30 0.26 0.16 0.11 0.10 0.10 0.09 0.08 0.06 0.04 0.02 0.00 0.00 0.00 0.00 0.00 0.00 0.00 0.01 0.02 0.04 0.06 0.06 0.06 0.06 0.07 0.08
1.24 1.13 1.03 0.91 0.83 0.76 0.67 0.56 0.54 0.48 0.44 0.40 0.31 0.26 0.24 0.24 0.24 0.20 0.16 0.11 0.11 0.10 0.08 0.07 0.07 0.04 0.02 0.00 0.00 0.00 0.00 0.00 0.00 0.00 0.01 0.01 0.02 0.04 0.04 0.04 0.06 0.06 0.06
1.44 1.35 1.21 1.08 0.99 0.90 0.78 0.63 0.56 0.52 0.47 0.43 0.33 0.28 0.26 0.26 0.27 0.25 0.22 0.17 0.15 0.10 0.08 0.06 0.05 0.02 0.01 0.00 0.00 0.00 0.00 0.00 0.00 0.00 0.00 0.00 0.01 0.02 0.03 0.03 0.04 0.05 0.05
1.54 1.45 1.39 1.29 1.14 1.03 0.87 0.72 0.61 0.55 0.49 0.44 0.39 0.35 0.33 0.27 0.23 0.21 0.19 0.15 0.15 0.11 0.09 0.08 0.04 0.03 0.02 0.01 0.01 0.01 0.00 0.00 0.00 0.00 0.00 0.00 0.01 0.01 0.02 0.03 0.04 0.04 0.06
1.41 1.44 1.36 1.31 1.20 1.09 0.96 0.81 0.65 0.60 0.52 0.47 0.46 0.43 0.38 0.30 0.24 0.22 0.23 0.21 0.18 0.14 0.11 0.09 0.06 0.04 0.03 0.02 0.01 0.01 0.00 0.00 0.00 0.00 0.00 0.00 0.00 0.01 0.01 0.02 0.04 0.06 0.09
1.31 1.37 1.38 1.32 1.21 1.14 1.01 0.85 0.70 0.63 0.59 0.59 0.52 0.45 0.41 0.34 0.29 0.28 0.24 0.22 0.19 0.16 0.14 0.11 0.08 0.06 0.05 0.04 0.02 0.01 0.01 0.00 0.00 0.00 0.00 0.00 0.00 0.00 0.01 0.02 0.04 0.08 0.14
1.30 1.39 1.37 1.35 1.32 1.15 1.04 0.94 0.81 0.72 0.65 0.62 0.58 0.50 0.48 0.40 0.33 0.31 0.28 0.24 0.20 0.18 0.17 0.15 0.14 0.11 0.08 0.05 0.03 0.02 0.02 0.01 0.01 0.00 0.00 0.00 0.00 0.00 0.00 0.01 0.04 0.09 0.15
1.36 1.45 1.44 1.35 1.31 1.20 1.07 1.02 0.91 0.79 0.71 0.64 0.65 0.61 0.56 0.51 0.46 0.39 0.30 0.24 0.26 0.26 0.24 0.21 0.19 0.17 0.13 0.10 0.07 0.05 0.04 0.03 0.02 0.01 0.01 0.01 0.01 0.00 0.00 0.01 0.03 0.07 0.11
1.40 1.50 1.53 1.49 1.41 1.39 1.34 1.22 1.12 0.99 0.82 0.77 0.74 0.69 0.59 0.56 0.54 0.51 0.40 0.32 0.35 0.33 0.27 0.23 0.20 0.20 0.17 0.15 0.14 0.11 0.08 0.07 0.05 0.03 0.02 0.01 0.01 0.01 0.01 0.02 0.02 0.03 0.06
1.56 1.66 1.66 1.64 1.60 1.69 1.70 1.57 1.36 1.19 0.98 0.87 0.83 0.74 0.69 0.64 0.59 0.55 0.50 0.46 0.47 0.45 0.37 0.32 0.27 0.25 0.23 0.23 0.21 0.14 0.10 0.08 0.07 0.05 0.04 0.03 0.02 0.02 0.03 0.03 0.03 0.02 0.02
1.65 1.74 1.75 1.71 1.71 1.74 1.72 1.59 1.39 1.20 1.13 1.02 0.95 0.90 0.86 0.83 0.82 0.70 0.55 0.54 0.55 0.52 0.48 0.46 0.44 0.42 0.36 0.34 0.29 0.19 0.12 0.09 0.08 0.06 0.05 0.04 0.04 0.04 0.04 0.04 0.04 0.03 0.02
1.53 1.77 1.85 1.83 1.85 1.72 1.59 1.63 1.60 1.53 1.39 1.28 1.22 1.13 1.00 0.95 0.95 0.91 0.81 0.73 0.69 0.63 0.60 0.59 0.58 0.53 0.49 0.49 0.45 0.39 0.25 0.15 0.10 0.07 0.07 0.06 0.05 0.05 0.04 0.05 0.04 0.04 0.03
1.31 1.62 1.80 1.91 1.94 1.93 1.87 1.99 1.94 1.82 1.58 1.32 1.15 1.15 1.14 1.10 1.08 1.04 1.03 1.01 0.98 0.92 0.79 0.76 0.76 0.70 0.63 0.61 0.58 0.58 0.39 0.23 0.15 0.11 0.09 0.08 0.07 0.06 0.05 0.05 0.06 0.06 0.05
1.10 1.34 1.54 1.81 2.00 2.07 2.13 2.08 1.96 1.74 1.51 1.27 1.24 1.34 1.37 1.31 1.22 1.17 1.15 1.15 1.14 1.07 0.97 0.97 0.99 0.90 0.85 0.76 0.70 0.62 0.50 0.36 0.30 0.20 0.12 0.10 0.10 0.08 0.09 0.08 0.07 0.06 0.06
1.01 1.20 1.33 1.55 1.86 1.96 1.91 1.89 1.96 1.83 1.61 1.49 1.46 1.43 1.41 1.33 1.26 1.20 1.17 1.18 1.16 1.12 1.05 1.05 1.07 1.05 1.01 0.92 0.80 0.73 0.67 0.53 0.39 0.34 0.22 0.14 0.13 0.13 0.13 0.12 0.10 0.09 0.09
0.85 1.05 1.23 1.32 1.53 1.68 1.67 1.72 1.79 1.71 1.64 1.54 1.41 1.36 1.36 1.31 1.23 1.17 1.14 1.15 1.17 1.16 1.11 1.10 1.14 1.16 1.13 1.03 0.91 0.78 0.73 0.64 0.51 0.48 0.41 0.28 0.24 0.20 0.19 0.18 0.18 0.16 0.16